STARLINK-5016 (56143 NORAD) Tracking and Keplerian Element Data

This shows tracking and keplerian element data for the satellite.

Feedback or suggestion? Click here.




ElementValue
Catalog56143
NameSTARLINK-5016
Epoch Orbit656
Epoch Day127.25001157
Epoch Year2023
RAAN33.6678
Inclination43.0016
Eccentricity0.0001372
Argument of Perigee268.984
Mean Anonmoly0.5046
Mean Motion15.48873455
Decay Rate0.00062784
L11 56143U 23046BD 23127.25001157 .00062784 00000+0 11337-2 0 9993
L22 56143 43.0016 33.6678 0001372 268.9840 0.5046 15.48873455 6560



Live tracking and technical data element details for STARLINK-5016 (NORAD 56143). STARLINK-5016 can be tracked NOW for your location showing map with azimuth and elevation plus other details from your city location.







IsCatalogInMostPopularTable: catalog: 56143, numindb: 4
Update: records affected: 1



GetName: 56143 STARLINK-5016

Hit Count: updated at: Sun, 04 Jun 2023 23:06:22 GMT